www.pogodaiklimat.ru

ПОГОДА в Клинтоне, NC

  • Прогноз погоды в Клинтоне
  • Монитор погоды в Клинтоне
  • Климат в Клинтоне

АРХИВ ПОГОДЫ в Клинтоне

Время (UTC), дата Ветер
(напр.,м/с)
 
Видим.   Явления Облачность Т
(С)
Тd
(С)
f
(%)
Тe
(С)
Тes
(С)
Комфортность

P
(гПа)

Po
(гПа)
Тmin
(С)
Tmax
(С)
R
(мм)
SD
(см)
13:10 24.05 З  16 км    ясно  +28.8  +21.4  64  +36  +45  очень
душно 
  1013.8         
13:30 24.05 З  16 км    ясно  +29.6  +21.6  62  +38  +45  очень
душно 
  1013.8         
13:50 24.05 З  16 км    ясно  +30.4  +21.5  59  +38  +47  очень
душно 
  1013.8         
14:10 24.05 З  16 км    ясно  +30.8  +21.6  58  +39  +52  опасность
солнечного
удара 
  1013.4         
14:30 24.05 СЗ  16 км    ясно  +31.6  +21.4  55  +40  +51  опасность
солнечного
удара 
  1013.4         
14:50 24.05 З  16 км    ясно  +32.0  +21.2  53  +40  +50  очень
душно 
  1013.4         
15:10 24.05 ЮЗ  16 км    ясно  +32.7  +21.5  52  +41  +54  опасность
перегрева 
  1013.1         
15:30 24.05 СЗ  16 км    ясно  +33.2  +21.0  49  +41  +56  опасность
перегрева 
  1012.7         
15:50 24.05 З  16 км    ясно  +33.8  +20.8  47  +41  +52  опасность
перегрева 
  1013.1         
16:10 24.05 З  16 км    ясно  +34.2  +20.8  46  +41  +55  опасность
перегрева 
  1012.4         
16:30 24.05 З  16 км    ясно  +34.6  +20.8  45  +42  +56  опасность
перегрева 
  1012.4         
16:50 24.05 З  16 км    ясно  +34.8  +20.7  44  +42  +55  опасность
перегрева 
  1012.1  +23.5  +34.8     
17:10 24.05 З  16 км    ясно  +35.0  +20.5  43  +42  +52  опасность
перегрева 
  1011.7         
17:30 24.05 З  4
{8} 
16 км    ясно  +35.1  +20.3  42  +41  +53  опасность
перегрева 
  1011.7         
17:50 24.05 СЗ  16 км    ясно  +35.4  +20.0  41  +41  +56  опасность
перегрева 
  1011.4         
18:10 24.05 З  16 км    ясно  +36.1  +19.4  38  +41  +54  опасность
перегрева 
  1011.4         
18:30 24.05 СЗ  16 км    ясно  +35.8  +19.0  37  +40  +55  опасность
солнечного
удара 
  1011.1         
18:50 24.05 З  16 км    ясно  +35.9  +19.1  37  +41  +60  опасность
перегрева 
  1011.1         
19:10 24.05 СЗ  16 км    ясно  +36.1  +19.0  37  +41  +50  опасность
перегрева 
  1010.7         
19:30 24.05 З  16 км    ясно  +35.8  +18.7  37  +40  +49  очень
душно 
  1010.7         
19:50 24.05 СЗ  16 км    ясно  +35.9  +18.6  36  +40  +52  опасность
солнечного
удара 
  1010.7         
20:10 24.05 СЗ  16 км    ясно  +35.6  +19.1  38  +40  +47  очень
душно 
  1010.7         
20:30 24.05 З  16 км    ясно  +35.6  +18.2  36  +40  +46  очень
душно 
  1011.1         
20:50 24.05 СЗ  16 км    ясно  +35.5  +18.7  37  +40  +46  очень
душно 
  1011.1         
21:10 24.05 СЗ  16 км    ясно  +35.0  +18.6  38  +39  +43  очень
душно 
  1011.4         
21:30 24.05 СЗ  16 км    ясно  +34.5  +19.2  41  +40  +44  очень
душно 
  1011.4         
21:50 24.05 СЗ  16 км    ясно  +33.9  +19.5  43  +40  +44  очень
душно 
  1011.4         
22:10 24.05 СЗ  16 км    ясно  +33.1  +19.7  45  +39  +40  очень
душно 
  1011.4         
22:30 24.05   16 км    ясно  +32.7  +20.1  48  +39  +41  очень
душно 
  1011.4         
22:50 24.05   16 км    ясно  +32.0  +20.2  50  +39  +41  очень
душно 
  1011.7  +32.0  +36.1     
23:10 24.05   16 км    ясно  +31.2  +20.6  53  +38  +38  очень
душно 
  1011.7         
23:30 24.05   16 км    ясно  +30.0  +21.7  61  +38  +38  очень
душно 
  1012.1         
23:50 24.05   16 км    ясно  +28.2  +21.1  65  +35  +36  очень
душно 
  1012.4         
00:10 25.05   16 км    ясно  +27.6  +21.0  67  +35  +35  очень
душно 
  1012.4         
00:30 25.05   16 км    ясно  +27.3  +21.6  71  +35  +35  очень
душно 
  1012.4         
00:50 25.05   16 км    ясно  +26.5  +21.5  74  +34  +34  очень
душно 
  1012.7         
01:10 25.05   16 км    ясно  +26.1  +21.2  74  +33  +33  очень
душно 
  1012.7         
01:30 25.05   16 км    ясно  +26.0  +21.5  76  +33  +33  очень
душно 
  1012.7         
01:50 25.05   16 км    ясно  +25.5  +21.7  80  +33  +33  очень
душно 
  1012.7         
02:10 25.05   16 км    ясно  +25.3  +21.3  79  +32  +32  очень
душно 
  1012.7         
02:30 25.05   16 км    ясно  +24.8  +21.5  82  +32  +32  очень
душно 
  1012.7         
02:50 25.05   16 км    ясно  +24.6  +21.5  83  +31  +31  очень
душно 
  1012.4         
03:10 25.05   16 км    ясно  +24.5  +21.6  84  +31  +31  очень
душно 
  1012.4         
03:30 25.05   16 км    ясно  +24.2  +21.4  84  +31  +31  очень
душно 
  1012.4         
03:50 25.05   16 км    ясно  +23.7  +21.5  87  +30  +30  очень
душно 
  1012.4         
04:10 25.05 В  16 км    ясно  +23.2  +21.6  91  +31  +31  очень
душно 
  1012.4         
04:30 25.05 В  16 км    ясно  +25.0  +21.1  79  +32  +32  очень
душно 
  1012.4         
04:50 25.05 В  16 км    ясно  +24.4  +21.1  82  +31  +31  очень
душно 
  1012.4  +23.2  +31.7     

 

Местоположение метеостанции Sampson County Airport: широта 34.9756 долгота -78.3647 высота над уровнем моря 45 м.

В архиве по умолчанию представлена погода в Клинтоне за последние 1-2 суток. Обновление информации о фактической погоде в базе происходит ежечасно! Архивные данные за месяц целиком и за предыдущие месяцы Вы можете получить, выбрав интересующий диапазон дат из раскрывающегося списка и нажав кнопку "Ввод!".

Внимание! Архив погоды МЕТАР в базе сайта хранится не более 60 дней. Нет смысла пытаться выбрать более раннюю дату.

Внимание! Время в таблицах - всемирное. Для получения местного времени необходимо прибавить поправку, которая в Клинтоне равна -5 ч.

Ветер - указаны скорость ветра в м/с и направление, откуда дует ветер: С - северный, СВ - северо-восточный, В - восточный, ЮВ - юго-восточный, Ю - южный, ЮЗ - юго-западный, З - западный, СЗ - северо-западный.
Видимость - горизонтальная дальность видимости в метрах или километрах. При видимости от 1 до 10 км при отсутствии осадков обычно наблюдается дымка, при ухудшении видимости до 1 км и менее - туман. В сухую погоду видимость может ухудшаться дымом, пылью или мглою.
Атмосферные явления - указаны явления, наблюдавшиеся в указанный момент времени.
Облачность - указаны через наклонную черту верхняя и нижняя облачность в баллах и высота нижней границы облаков в метрах. Внимание: облачность, как и прочие метеорологические величины в США измеряются автоматическими метеостанциями. Указанные значения в баллах носят условный характер и показывают процент времени, в течение которого, в среднем, лазерный луч высотомера отражался от облаков обратно.
T - Температура воздуха - температура, измеренная на высоте 2 м над землей.
Td - Температура точки росы - температура, при понижении до которой содержащийся в воздухе водяной пар достигнет насыщения.
f - Относительная влажность воздуха - влажноcть воздуха, измеренная на высоте 2 м над землей.
Te - Эффективная температура - температура, которую ощущает одетый по сезону человек в тени. Характеристика душности погоды. При расчете учитывается влияние влажности воздуха и скорости ветра на теплоощущения человека.
Tes - Эффективная температура на солнце - температура, которую ощущает человек, с поправкой на солнечный нагрев. Характеристика знойности погоды. Зависит от высоты солнца над горизонтом, облачности и скорости ветра. Ночью, в пасмурную погоду, а также при ветре 12 м/с и более поправка равна нулю.
P - Атмосферное давление - приведенное к уровню моря атмосферное давление.
Po - Атмосферное давление - измеренное на уровне метеостанции атмосферное давление.
Tmin - Минимальная температура - минимум температуры воздуха на высоте 2 м над землей.
Tmax - Максимальная температура - максимум температуры воздуха на высоте 2 м над землей.
R - Количество осадков - Количество выпавших осадков за 3 или 6 часов, мм.
SD - Снежный покров - Высота снежного покрова, см.